Belize, Belize

10:54 PM CST on February 12, 2016 (GMT -0600)
Philip S W Goldson International

Weather History for MZBZ - September, 2014

Change the Weather History Date:

Friday, September 26, 2014

  Actual Average Record
Temperature  
Mean Temperature 76 °F -  
Max Temperature 77 °F 87 °F 91 °F (1997)
Min Temperature 75 °F 73 °F 73 °F (2015)
Cooling Degree Days 11    
Growing Degree Days 26 (Base 50)    
Moisture  
Dew Point 75 °F    
Average Humidity 96    
Maximum Humidity 100    
Minimum Humidity 94    
Precipitation  
Precipitation 1.65 in 0.34 in - ()
Sea Level Pressure  
Sea Level Pressure 29.85 in    
Wind  
Wind Speed 3 mph ()    
Max Wind Speed 8 mph    
Max Gust Speed -    
Visibility 6.9 miles    
Events Rain , Thunderstorm    
Averages and records for this station are not official NWS values.
T = Trace of Precipitation, MM = Missing Value Source: Averaged Metar Reports

Daily Weather History Graph

Daily Weather History Graph

Search for Another Location

Airport or City:

Trip Planner

Search our weather history database for the weather conditions in past years. The results will help you decide how hot, cold, wet, or windy it might be!

Date:

Astronomy

Sep. 26, 2014 Rise Set
Actual Time 5:42 AM CST 5:45 PM CST
Civil Twilight 5:21 AM CST 6:07 PM CST
Nautical Twilight 4:55 AM CST 6:32 PM CST
Astronomical Twilight 4:30 AM CST 6:58 PM CST
Moon 7:37 AM CST (9/26) 7:30 PM CST (9/26)
Length of Visible Light 12h 46m
Length of Day
12h 03m
Waxing Crescent, 6% of the Moon is Illuminated
Sep 26
Waxing Crescent
Oct 1
First Quarter
Oct 8
Full
Oct 15
Last Quarter
Oct 23
New

Hourly Weather History & Observations

Time (CST) Temp. Dew Point Humidity Pressure Visibility Wind Dir Wind Speed Gust Speed Precip Events Conditions
12:00 AM 76 °F 76 °F 98% 29.88 in 9 mi NW 3.5 mph - - Rain Light Rain
3:00 AM 77 °F 76 °F 95% 29.84 in 6 mi NNW 3.5 mph - - Rain Light Rain
5:00 AM 75.2 °F 75.2 °F 100% 29.86 in 6.2 mi NW 5.8 mph - N/A Rain Light Rain
6:00 AM 76 °F 75 °F 96% 29.87 in 11 mi NW 4.6 mph - - Rain Light Rain
6:00 AM 75.2 °F 75.2 °F 100% 29.86 in 6.2 mi NW 4.6 mph - N/A Rain Light Rain
7:00 AM 75.2 °F 75.2 °F 100% 29.87 in 6.2 mi NW 4.6 mph - N/A   Mostly Cloudy
8:00 AM 77.0 °F 77.0 °F 100% 29.90 in 6.2 mi Calm Calm - N/A Rain Light Rain
9:00 AM 76 °F 75 °F 97% 29.91 in 6 mi Calm Calm - - Rain Light Rain
9:00 AM 77.0 °F 75.2 °F 94% 29.91 in 6.2 mi Calm Calm - N/A Rain Light Rain
10:00 AM 77.0 °F 75.2 °F 94% 29.90 in 4.3 mi ENE 8.1 mph - N/A Rain Light Rain
10:15 AM 77.0 °F 75.2 °F 94% 29.90 in 3.1 mi ENE 5.8 mph - N/A Rain Light Rain
11:00 AM 75.2 °F 75.2 °F 100% 29.90 in 5.6 mi Calm Calm - N/A Rain Light Rain
12:00 PM 77 °F 76 °F 95% 29.86 in 6 mi Calm Calm - - Rain Light Rain
12:00 PM 77.0 °F 75.2 °F 94% 29.86 in 5.6 mi Calm Calm - N/A Rain Light Rain
1:00 PM 77.0 °F 75.2 °F 94% 29.85 in 6.2 mi East 5.8 mph - N/A Rain Light Rain
2:00 PM 77.0 °F 77.0 °F 100% 29.82 in 6.2 mi East 4.6 mph - N/A Rain Light Rain
3:00 PM 76 °F 75 °F 97% 29.78 in 9 mi ESE 4.6 mph - - Rain Light Rain
3:00 PM 77.0 °F 75.2 °F 94% 29.78 in 6.2 mi ESE 4.6 mph - N/A Rain Light Rain
4:00 PM 77.0 °F 75.2 °F 94% 29.77 in 6.2 mi Calm Calm - N/A Rain Light Rain
5:00 PM 77.0 °F 75.2 °F 94% 29.77 in 6.2 mi Calm Calm - N/A Rain Light Rain
6:00 PM 76 °F 75 °F 95% 29.80 in 12 mi Calm Calm - - Rain Light Rain
6:00 PM 77.0 °F 75.2 °F 94% 29.79 in 6.2 mi Calm Calm - N/A   Mostly Cloudy
9:00 PM 75 °F 74 °F 96% 29.87 in 12 mi Calm Calm - - Thunderstorm Thunderstorm